WXM80 ListenWXM80 Stop

You find our weather info also at:

UK Metoffice

WeatherCloud

Weather Underground

Northeastern Weather Network

AWEKAS

Citizen Weather Observer Program (CWOP)

HAMweather, WeatherForYou, PWS Weather


Weather Underground History page Text

Daily Summary for August 31, 2017 Units:  Metric    English   Both
« Previous Day
Next Day »
Daily Weekly Monthly Yearly Custom
  High: Low: Average:
Temperature: 29.7 °C 17.5 °C 21.9 °C
Dew Point: 20.5 °C 11.9 °C 16.5 °C
Humidity: 90 % 50 % 73 %
Wind Speed: 13.4 km/h 0 km/h 3.7 km/h
Wind Gust: 25.7 km/h - -
Wind:- - WSW
Pressure: 1013.4 hPa 1009.4 hPa -
Precipitation: 0 mm    
Historical Graphs
 
 
Tabular Data for August 31, 2017
Time Temperature Dew Point Pressure Wind Wind Speed Wind Gust Humidity Rainfall Rate (Hourly)
00:04 18.4 °C 15.3 °C 1011.1 hPa WSW 0.3 km/h 1.9 km/h 82 % 0 mm
00:09 18.4 °C 15.3 °C 1011.1 hPa SSW 0.5 km/h 5.6 km/h 82 % 0 mm
00:14 18.4 °C 15.3 °C 1011.1 hPa SW 0.6 km/h 1.9 km/h 82 % 0 mm
00:19 18.4 °C 15.3 °C 1011.1 hPa SW 1.1 km/h 5.6 km/h 82 % 0 mm
00:24 18.4 °C 15.5 °C 1011.1 hPa SW 0.8 km/h 3.7 km/h 83 % 0 mm
00:29 18.4 °C 15.5 °C 1011.1 hPa SW 0.2 km/h 1.9 km/h 83 % 0 mm
00:34 18.4 °C 15.5 °C 1011.1 hPa SW 0.2 km/h 1.9 km/h 83 % 0 mm
00:39 18.4 °C 15.5 °C 1011.1 hPa Calm   1.9 km/h 83 % 0 mm
00:44 18.4 °C 15.5 °C 1011.1 hPa Calm   1.9 km/h 83 % 0 mm
00:49 18.4 °C 15.5 °C 1011.1 hPa West 1.8 km/h 5.6 km/h 83 % 0 mm
00:55 18.4 °C 15.5 °C 1011.1 hPa West 1.9 km/h 3.2 km/h 83 % 0 mm
01:00 18.4 °C 15.5 °C 1011.1 hPa Calm   1.9 km/h 83 % 0 mm
01:05 18.4 °C 15.7 °C 1011.1 hPa WSW 0.3 km/h 5.6 km/h 84 % 0 mm
01:10 18.4 °C 15.7 °C 1011.1 hPa SW 3.1 km/h 5.6 km/h 84 % 0 mm
01:15 18.4 °C 15.7 °C 1011.1 hPa WSW 2.7 km/h 8 km/h 84 % 0 mm
01:20 18.4 °C 15.7 °C 1010.7 hPa WSW 1.9 km/h 5.6 km/h 84 % 0 mm
01:25 18.5 °C 15.7 °C 1011.1 hPa SW 1.4 km/h 6.4 km/h 84 % 0 mm
01:30 18.5 °C 15.7 °C 1011.1 hPa WSW 1.8 km/h 5.6 km/h 84 % 0 mm
01:35 18.6 °C 15.8 °C 1011.1 hPa WSW 3.1 km/h 5.6 km/h 84 % 0 mm
01:40 18.6 °C 15.8 °C 1011.1 hPa SSW 1.6 km/h 8 km/h 84 % 0 mm
01:45 18.6 °C 15.8 °C 1011.1 hPa SW 2.3 km/h 7.4 km/h 84 % 0 mm
01:50 18.7 °C 15.9 °C 1011.1 hPa WSW 0.2 km/h 1.9 km/h 84 % 0 mm
01:55 18.7 °C 15.9 °C 1010.7 hPa WSW 0.6 km/h 3.7 km/h 84 % 0 mm
02:00 18.7 °C 15.8 °C 1010.7 hPa SW 2.7 km/h 5.6 km/h 83 % 0 mm
02:05 18.8 °C 15.8 °C 1010.7 hPa SW 0.2 km/h 1.9 km/h 83 % 0 mm
02:10 18.8 °C 15.8 °C 1010.7 hPa WSW 1 km/h 1.9 km/h 83 % 0 mm
02:15 18.8 °C 15.8 °C 1010.7 hPa WSW 2.3 km/h 5.6 km/h 83 % 0 mm
02:20 18.8 °C 15.9 °C 1010.7 hPa WSW 1.8 km/h 6.4 km/h 83 % 0 mm
02:25 18.8 °C 15.9 °C 1010.7 hPa WSW 2.9 km/h 5.6 km/h 83 % 0 mm
02:30 18.9 °C 15.9 °C 1010.4 hPa WSW 1.4 km/h 5.6 km/h 83 % 0 mm
02:35 18.9 °C 15.9 °C 1010.4 hPa WSW 1.9 km/h 3.7 km/h 83 % 0 mm
02:40 18.9 °C 15.9 °C 1010.4 hPa WSW 0.2 km/h 1.9 km/h 83 % 0 mm
02:45 18.9 °C 15.9 °C 1010.4 hPa West 0.3 km/h 1.9 km/h 83 % 0 mm
02:50 18.9 °C 15.9 °C 1010.4 hPa Calm   1.9 km/h 83 % 0 mm
02:55 18.9 °C 15.7 °C 1010.4 hPa SW 1.1 km/h 5.6 km/h 82 % 0 mm
03:00 18.8 °C 15.7 °C 1010.4 hPa Calm   1.9 km/h 82 % 0 mm
03:05 18.8 °C 15.7 °C 1010.4 hPa SW 1.3 km/h 3.7 km/h 82 % 0 mm
03:10 18.8 °C 15.8 °C 1010.4 hPa Calm   1.6 km/h 83 % 0 mm
03:16 18.7 °C 15.8 °C 1010.4 hPa Calm   4.8 km/h 83 % 0 mm
03:21 18.7 °C 15.7 °C 1010.4 hPa SW 1.6 km/h 3.2 km/h 83 % 0 mm
03:26 18.6 °C 15.7 °C 1010.4 hPa Calm   4.8 km/h 83 % 0 mm
03:31 18.6 °C 15.6 °C 1010.4 hPa Calm   4.8 km/h 83 % 0 mm
03:36 18.5 °C 15.7 °C 1010.4 hPa West 0.8 km/h 5.6 km/h 84 % 0 mm
03:41 18.4 °C 15.7 °C 1010.4 hPa West 1.6 km/h 3.2 km/h 84 % 0 mm
03:46 18.4 °C 15.6 °C 1010.4 hPa SW 1.1 km/h 5.6 km/h 84 % 0 mm
03:51 18.3 °C 15.6 °C 1010.4 hPa WSW 1.6 km/h 6.4 km/h 84 % 0 mm
03:56 18.3 °C 15.8 °C 1010.4 hPa WSW 1.6 km/h 6.4 km/h 85 % 0 mm
04:01 18.3 °C 15.8 °C 1010.4 hPa WSW 0.8 km/h 5.6 km/h 85 % 0 mm
04:06 18.3 °C 15.7 °C 1010.7 hPa WSW 0.2 km/h 1.9 km/h 85 % 0 mm
04:11 18.3 °C 15.7 °C 1010.4 hPa Calm     85 % 0 mm
04:16 18.2 °C 15.7 °C 1010.4 hPa Calm     85 % 0 mm
04:21 18.2 °C 15.6 °C 1010.4 hPa Calm   1.9 km/h 85 % 0 mm
04:26 18.2 °C 15.6 °C 1010.7 hPa WSW 0.3 km/h 1.9 km/h 85 % 0 mm
04:31 18.1 °C 15.6 °C 1010.4 hPa Calm     85 % 0 mm
04:36 18.1 °C 15.5 °C 1010.4 hPa SW 0.6 km/h 3.7 km/h 85 % 0 mm
04:41 18 °C 15.6 °C 1010.4 hPa Calm     86 % 0 mm
04:46 17.9 °C 15.6 °C 1010.4 hPa SW 1.8 km/h 3.7 km/h 86 % 0 mm
04:51 17.9 °C 15.5 °C 1010.4 hPa WSW 1.1 km/h 5.6 km/h 86 % 0 mm
04:56 17.8 °C 15.7 °C 1010.4 hPa South 4 km/h 6.4 km/h 87 % 0 mm
04:58 17.8 °C 15.7 °C 1010.4 hPa WSW 3.5 km/h 11.1 km/h 87 % 0 mm
05:03 17.8 °C 15.7 °C 1010.4 hPa West 4 km/h 11.1 km/h 87 % 0 mm
05:08 17.8 °C 15.8 °C 1010.4 hPa WSW 2.9 km/h 5.6 km/h 88 % 0 mm
05:13 17.8 °C 15.8 °C 1010.4 hPa SW 1.4 km/h 3.7 km/h 88 % 0 mm
05:18 17.8 °C 15.8 °C 1010.4 hPa SSW 4.2 km/h 7.4 km/h 88 % 0 mm
05:23 17.8 °C 15.8 °C 1010.7 hPa West 4 km/h 7.4 km/h 88 % 0 mm
05:28 17.8 °C 15.8 °C 1010.7 hPa SW 2.6 km/h 5.6 km/h 88 % 0 mm
05:33 17.9 °C 15.7 °C 1010.4 hPa WSW 2.6 km/h 5.6 km/h 87 % 0 mm
05:38 17.9 °C 15.7 °C 1010.7 hPa SW 2.6 km/h 4.8 km/h 87 % 0 mm
05:43 17.9 °C 15.7 °C 1010.7 hPa SW 0.6 km/h 3.7 km/h 87 % 0 mm
05:48 17.9 °C 15.7 °C 1010.7 hPa SSW 0.2 km/h 5.6 km/h 87 % 0 mm
05:53 17.8 °C 15.7 °C 1010.7 hPa SW 1.1 km/h 5.6 km/h 87 % 0 mm
05:58 17.8 °C 15.7 °C 1010.7 hPa West 0.2 km/h 3.7 km/h 87 % 0 mm
06:03 17.8 °C 15.6 °C 1011.1 hPa Calm   3.7 km/h 87 % 0 mm
06:08 17.8 °C 15.6 °C 1011.1 hPa WSW 0.6 km/h 6.4 km/h 87 % 0 mm
06:13 17.7 °C 15.6 °C 1011.1 hPa Calm   1.9 km/h 87 % 0 mm
06:18 17.7 °C 15.6 °C 1011.1 hPa Calm     87 % 0 mm
06:23 17.7 °C 15.5 °C 1011.1 hPa WSW 0.2 km/h 3.7 km/h 87 % 0 mm
06:28 17.7 °C 15.5 °C 1011.1 hPa WSW 1 km/h 5.6 km/h 87 % 0 mm
06:33 17.6 °C 15.4 °C 1011.1 hPa WSW 0.5 km/h 5.6 km/h 87 % 0 mm
06:39 17.6 °C 15.6 °C 1011.1 hPa SW 2.4 km/h 5.6 km/h 88 % 0 mm
06:44 17.6 °C 15.6 °C 1011.4 hPa Calm   1.9 km/h 88 % 0 mm
06:49 17.6 °C 15.6 °C 1011.4 hPa SW 0.5 km/h 3.7 km/h 88 % 0 mm
06:54 17.5 °C 15.5 °C 1011.1 hPa SW 2.1 km/h 5.6 km/h 88 % 0 mm
06:59 17.5 °C 15.7 °C 1011.4 hPa SW 3.7 km/h 5.6 km/h 89 % 0 mm
07:04 17.5 °C 15.7 °C 1011.4 hPa SW 0.8 km/h 3.2 km/h 89 % 0 mm
07:09 17.5 °C 15.7 °C 1011.4 hPa SW 2.1 km/h 3.7 km/h 89 % 0 mm
07:14 17.5 °C 15.7 °C 1011.4 hPa SW 1 km/h 3.7 km/h 89 % 0 mm
07:19 17.6 °C 15.7 °C 1011.4 hPa SW 1.4 km/h 5.6 km/h 89 % 0 mm
07:24 17.6 °C 15.7 °C 1011.4 hPa SW 0.3 km/h 5.6 km/h 89 % 0 mm
07:29 17.6 °C 15.7 °C 1011.4 hPa Calm     89 % 0 mm
07:34 17.6 °C 15.9 °C 1011.4 hPa SW 3.1 km/h 5.6 km/h 90 % 0 mm
07:39 17.7 °C 16 °C 1011.4 hPa SW 0.8 km/h 3.7 km/h 90 % 0 mm
07:44 17.7 °C 16.1 °C 1011.4 hPa SW 1.1 km/h 3.7 km/h 90 % 0 mm
07:49 17.8 °C 16.1 °C 1011.7 hPa SW 1.4 km/h 3.7 km/h 90 % 0 mm
07:54 17.9 °C 16.2 °C 1011.4 hPa SW 1.3 km/h 3.7 km/h 90 % 0 mm
07:59 18 °C 16.3 °C 1011.4 hPa WSW 0.8 km/h 5.6 km/h 90 % 0 mm
08:04 18.2 °C 16.5 °C 1011.4 hPa West 6.6 km/h 13 km/h 90 % 0 mm
08:09 18.3 °C 16.5 °C 1011.4 hPa WSW 2.1 km/h 3.7 km/h 89 % 0 mm
08:14 18.5 °C 16.7 °C 1011.4 hPa WSW 0.3 km/h 5.6 km/h 89 % 0 mm
08:19 18.7 °C 16.8 °C 1011.4 hPa Calm     89 % 0 mm
08:24 18.8 °C 17 °C 1011.4 hPa West 4.5 km/h 7.4 km/h 89 % 0 mm
08:29 19 °C 16.9 °C 1011.4 hPa SSW 5.6 km/h 9.7 km/h 88 % 0 mm
08:34 19.2 °C 17.1 °C 1011.4 hPa WNW 5.1 km/h 9.3 km/h 88 % 0 mm
08:39 19.3 °C 17.1 °C 1011.4 hPa SW 2.7 km/h 7.4 km/h 87 % 0 mm
08:44 19.5 °C 17.1 °C 1011.4 hPa SW 3.7 km/h 4.8 km/h 86 % 0 mm
08:49 19.7 °C 17.3 °C 1011.4 hPa West 3.5 km/h 4.8 km/h 86 % 0 mm
08:54 19.9 °C 17.3 °C 1011.4 hPa WSW 1.3 km/h 7.4 km/h 85 % 0 mm
08:59 20.1 °C 17.3 °C 1011.4 hPa West 6.6 km/h 9.3 km/h 84 % 0 mm
09:04 20.3 °C 17.3 °C 1011.4 hPa WSW 10 km/h 14.8 km/h 83 % 0 mm
09:09 20.4 °C 17.1 °C 1011.4 hPa SW 7.9 km/h 12.9 km/h 81 % 0 mm
09:14 20.6 °C 17.1 °C 1011.4 hPa West 6.9 km/h 13 km/h 80 % 0 mm
09:20 20.8 °C 17.3 °C 1011.4 hPa West 6 km/h 9.7 km/h 80 % 0 mm
09:25 21 °C 17.4 °C 1011.4 hPa West 5.8 km/h 14.8 km/h 80 % 0 mm
09:30 21.2 °C 17.2 °C 1011.4 hPa WSW 2.7 km/h 13 km/h 78 % 0 mm
09:35 21.3 °C 17.1 °C 1011.1 hPa West 4.7 km/h 11.1 km/h 77 % 0 mm
09:40 21.6 °C 17.2 °C 1011.1 hPa West 6.3 km/h 14.8 km/h 76 % 0 mm
09:45 21.8 °C 17.6 °C 1011.1 hPa WSW 5.1 km/h 11.1 km/h 77 % 0 mm
09:50 22.2 °C 17.7 °C 1011.1 hPa WSW 4.8 km/h 9.3 km/h 76 % 0 mm
09:55 22.6 °C 17.7 °C 1011.1 hPa NW 7.2 km/h 16.7 km/h 74 % 0 mm
10:00 22.9 °C 17.6 °C 1011.1 hPa SW 9.3 km/h 16.7 km/h 72 % 0 mm
10:05 23.1 °C 17.8 °C 1011.1 hPa SW 9 km/h 16.1 km/h 72 % 0 mm
10:10 23.3 °C 17.7 °C 1011.1 hPa WNW 6.3 km/h 9.3 km/h 71 % 0 mm
10:15 23.3 °C 17.8 °C 1011.1 hPa SSW 7.6 km/h 14.8 km/h 71 % 0 mm
10:20 23.3 °C 17.8 °C 1011.1 hPa WSW 8.5 km/h 14.5 km/h 71 % 0 mm
10:25 23.3 °C 17.5 °C 1011.1 hPa SW 9.2 km/h 14.8 km/h 70 % 0 mm
10:30 23.3 °C 17.7 °C 1011.1 hPa West 4 km/h 11.1 km/h 71 % 0 mm
10:35 23.3 °C 17.8 °C 1010.7 hPa SW 4.3 km/h 11.3 km/h 71 % 0 mm
10:40 23.4 °C 17.8 °C 1011.1 hPa WSW 5.3 km/h 16.7 km/h 71 % 0 mm
10:45 23.4 °C 18.1 °C 1011.1 hPa WNW 4 km/h 9.3 km/h 72 % 0 mm
10:50 23.6 °C 18.2 °C 1011.1 hPa WSW 9.3 km/h 13 km/h 72 % 0 mm
10:55 23.8 °C 18.2 °C 1011.1 hPa West 7.9 km/h 12.9 km/h 71 % 0 mm
11:00 24.1 °C 18.5 °C 1010.7 hPa West 5.6 km/h 13 km/h 71 % 0 mm
11:05 24.4 °C 18.4 °C 1011.1 hPa West 6.1 km/h 13 km/h 69 % 0 mm
11:10 24.8 °C 19 °C 1010.7 hPa SW 10.6 km/h 14.8 km/h 70 % 0 mm
11:16 25.2 °C 18.9 °C 1010.7 hPa WSW 9.7 km/h 19.3 km/h 68 % 0 mm
11:21 25.6 °C 19.2 °C 1010.7 hPa WSW 3.2 km/h 12.9 km/h 68 % 0 mm
11:26 25.9 °C 18.6 °C 1010.7 hPa WSW 8.9 km/h 22.2 km/h 64 % 0 mm
11:31 26.2 °C 18.9 °C 1010.7 hPa WSW 9.7 km/h 19.3 km/h 64 % 0 mm
11:36 26.4 °C 18.8 °C 1010.7 hPa WSW 8 km/h 16.1 km/h 63 % 0 mm
11:41 26.7 °C 19.1 °C 1010.7 hPa WSW 9.7 km/h 16.1 km/h 63 % 0 mm
11:46 26.9 °C 19.3 °C 1010.4 hPa WSW 7.4 km/h 13 km/h 63 % 0 mm
11:51 27.2 °C 19.3 °C 1010.4 hPa WSW 4.3 km/h 7.4 km/h 62 % 0 mm
11:56 27.4 °C 20.1 °C 1010 hPa WSW 7.9 km/h 16.7 km/h 64 % 0 mm
12:01 27.7 °C 20.1 °C 1010 hPa West 7.4 km/h 13 km/h 63 % 0 mm
12:06 27.9 °C 19.1 °C 1010 hPa WNW 8.5 km/h 16.7 km/h 59 % 0 mm
12:11 28.1 °C 19.8 °C 1010 hPa SW 7.7 km/h 11.3 km/h 61 % 0 mm
12:16 28.2 °C 20.5 °C 1010 hPa SW 9.8 km/h 18.5 km/h 63 % 0 mm
12:21 28.4 °C 19.6 °C 1010 hPa SW 3.9 km/h 14.5 km/h 59 % 0 mm
12:26 28.6 °C 19.2 °C 1009.7 hPa SSW 0.8 km/h 3.7 km/h 57 % 0 mm
12:31 28.7 °C 19.3 °C 1010 hPa WSW 7.4 km/h 11.1 km/h 57 % 0 mm
12:36 28.8 °C 18.8 °C 1010 hPa West 5 km/h 11.3 km/h 55 % 0 mm
12:41 28.8 °C 19.1 °C 1009.7 hPa SSW 6.6 km/h 16.7 km/h 56 % 0 mm
12:46 28.8 °C 19.1 °C 1009.7 hPa SW 5.3 km/h 9.3 km/h 56 % 0 mm
12:51 28.8 °C 19.2 °C 1009.7 hPa WSW 9.2 km/h 13 km/h 56 % 0 mm
12:56 28.9 °C 19.2 °C 1009.7 hPa SSW 8.4 km/h 13 km/h 56 % 0 mm
13:01 28.9 °C 19.6 °C 1009.7 hPa SW 4.3 km/h 11.1 km/h 57 % 0 mm
13:06 29 °C 19.1 °C 1009.7 hPa South 5.8 km/h 13 km/h 55 % 0 mm
13:11 29.1 °C 19.4 °C 1010 hPa WNW 3.7 km/h 7.4 km/h 56 % 0 mm
13:16 29.3 °C 20.4 °C 1010 hPa West 0.8 km/h 5.6 km/h 59 % 0 mm
13:21 29.4 °C 20.1 °C 1010 hPa NW 5 km/h 11.1 km/h 57 % 0 mm
13:27 29.5 °C 19.2 °C 1010 hPa West 1.6 km/h 5.6 km/h 54 % 0 mm
13:32 29.6 °C 19.6 °C 1009.7 hPa WNW 6.1 km/h 9.3 km/h 55 % 0 mm
13:37 29.6 °C 19.3 °C 1009.7 hPa NW 3.4 km/h 13 km/h 54 % 0 mm
13:42 29.6 °C 19.6 °C 1009.7 hPa WNW 3.1 km/h 7.4 km/h 55 % 0 mm
13:47 29.6 °C 18.7 °C 1009.7 hPa West 10.6 km/h 18.5 km/h 52 % 0 mm
13:52 29.6 °C 18.7 °C 1009.7 hPa NW 4.7 km/h 18.5 km/h 52 % 0 mm
13:57 29.6 °C 18.7 °C 1010 hPa WNW 7.6 km/h 13 km/h 52 % 0 mm
14:02 29.7 °C 19.1 °C 1009.7 hPa WNW 2.9 km/h 13 km/h 53 % 0 mm
14:07 29.7 °C 18.2 °C 1009.7 hPa NW 13.4 km/h 18.5 km/h 50 % 0 mm
14:12 29.6 °C 18.1 °C 1009.7 hPa WSW 4 km/h 13 km/h 50 % 0 mm
14:17 29.4 °C 18.9 °C 1009.7 hPa WNW 3.5 km/h 6.4 km/h 53 % 0 mm
14:22 29.2 °C 18.1 °C 1009.7 hPa WSW 6.8 km/h 12.9 km/h 51 % 0 mm
14:27 28.9 °C 18.1 °C 1009.7 hPa West 6.8 km/h 14.5 km/h 52 % 0 mm
14:32 28.7 °C 17.8 °C 1009.7 hPa West 6.3 km/h 11.1 km/h 52 % 0 mm
14:37 28.3 °C 18.1 °C 1009.7 hPa WNW 8 km/h 9.7 km/h 54 % 0 mm
14:42 27.9 °C 17.7 °C 1009.7 hPa WNW 5.1 km/h 18.5 km/h 54 % 0 mm
14:47 27.6 °C 18 °C 1009.7 hPa NW 6.8 km/h 14.8 km/h 56 % 0 mm
14:52 27.2 °C 18.2 °C 1009.7 hPa NW 1.8 km/h 11.1 km/h 58 % 0 mm
14:57 27.1 °C 18.3 °C 1009.7 hPa NW 4.2 km/h 8 km/h 59 % 0 mm
15:02 26.9 °C 18.8 °C 1009.4 hPa WNW 4.7 km/h 13 km/h 61 % 0 mm
15:07 26.9 °C 19.5 °C 1009.7 hPa NW 2.7 km/h 9.7 km/h 64 % 0 mm
15:12 26.8 °C 19.2 °C 1009.7 hPa WNW 6.9 km/h 6.9 km/h 63 % 0 mm
15:17 26.8 °C 18.9 °C 1009.4 hPa NW 6 km/h 13 km/h 62 % 0 mm
15:22 26.8 °C 19.2 °C 1009.7 hPa WNW 9.2 km/h 12.9 km/h 63 % 0 mm
15:27 26.9 °C 19.3 °C 1009.7 hPa West 4.7 km/h 11.1 km/h 63 % 0 mm
15:32 26.9 °C 19.1 °C 1009.7 hPa West 4.7 km/h 11.1 km/h 62 % 0 mm
15:37 26.9 °C 18.5 °C 1009.7 hPa West 5.5 km/h 11.1 km/h 60 % 0 mm
15:42 26.9 °C 18.5 °C 1009.7 hPa West 4.2 km/h 13 km/h 60 % 0 mm
15:47 26.8 °C 18.2 °C 1009.7 hPa WNW 7.9 km/h 14.8 km/h 59 % 0 mm
15:52 26.7 °C 18.1 °C 1009.7 hPa West 6.8 km/h 18.5 km/h 59 % 0 mm
15:57 26.6 °C 18.4 °C 1009.7 hPa NW 10.6 km/h 13 km/h 61 % 0 mm
16:02 26.4 °C 18.8 °C 1009.7 hPa NW 5.6 km/h 13 km/h 63 % 0 mm
16:07 26.2 °C 18.8 °C 1009.7 hPa NNW 1.1 km/h 5.6 km/h 64 % 0 mm
16:12 26.1 °C 18.7 °C 1009.7 hPa WNW 2.1 km/h 7.4 km/h 64 % 0 mm
16:17 25.8 °C 18.2 °C 1009.7 hPa WNW 4 km/h 7.4 km/h 63 % 0 mm
16:22 25.7 °C 18.3 °C 1010 hPa NW 6.1 km/h 11.1 km/h 64 % 0 mm
16:27 25.4 °C 17.9 °C 1009.7 hPa NW 7.1 km/h 13 km/h 63 % 0 mm
16:32 25.3 °C 18.3 °C 1009.7 hPa WNW 2.9 km/h 6.4 km/h 65 % 0 mm
16:38 25.2 °C 18.4 °C 1010 hPa WSW 4.2 km/h 6.4 km/h 66 % 0 mm
16:43 25.2 °C 18.6 °C 1010 hPa NNW 3.9 km/h 9.7 km/h 67 % 0 mm
16:48 25 °C 18.4 °C 1010 hPa NNW 1.4 km/h 11.1 km/h 67 % 0 mm
16:53 24.9 °C 18.6 °C 1010 hPa WNW 2.3 km/h 5.6 km/h 68 % 0 mm
16:58 24.8 °C 18 °C 1010 hPa NNW 2.1 km/h 5.6 km/h 66 % 0 mm
17:03 24.7 °C 18.2 °C 1010 hPa West 3.5 km/h 7.4 km/h 67 % 0 mm
17:08 24.7 °C 18.4 °C 1010 hPa WNW 5.3 km/h 7.4 km/h 68 % 0 mm
17:13 24.7 °C 18.6 °C 1010 hPa West 6.9 km/h 9.7 km/h 69 % 0 mm
17:18 24.8 °C 18.7 °C 1010 hPa WNW 1 km/h 5.6 km/h 69 % 0 mm
17:23 24.8 °C 19 °C 1010 hPa NW 1.9 km/h 5.6 km/h 70 % 0 mm
17:28 24.8 °C 18.8 °C 1010 hPa NW 2.4 km/h 7.4 km/h 69 % 0 mm
17:33 24.8 °C 18.5 °C 1010 hPa NNW 5.6 km/h 9.3 km/h 68 % 0 mm
17:38 24.8 °C 18.5 °C 1010 hPa North 9.2 km/h 14.8 km/h 68 % 0 mm
17:43 24.8 °C 18.7 °C 1010 hPa North 3.1 km/h 6.4 km/h 69 % 0 mm
17:48 24.6 °C 18.6 °C 1010.4 hPa NNE 4.5 km/h 9.3 km/h 69 % 0 mm
17:53 24.4 °C 18.4 °C 1010.4 hPa NNE 5.6 km/h 7.4 km/h 69 % 0 mm
17:58 24.1 °C 18.1 °C 1010.4 hPa NNE 6.3 km/h 9.7 km/h 69 % 0 mm
18:03 23.9 °C 18.1 °C 1010.4 hPa NNE 3.1 km/h 7.4 km/h 70 % 0 mm
18:08 23.8 °C 17.7 °C 1010.4 hPa North 7.1 km/h 8 km/h 69 % 0 mm
18:13 23.6 °C 17.8 °C 1010.4 hPa NNW 6.6 km/h 9.7 km/h 70 % 0 mm
18:18 23.4 °C 17.7 °C 1010.4 hPa NNE 4.7 km/h 11.1 km/h 70 % 0 mm
18:23 23.3 °C 17.6 °C 1010.4 hPa NW 1.4 km/h 7.4 km/h 70 % 0 mm
18:28 23.2 °C 17.7 °C 1010.4 hPa NNE 5.1 km/h 9.3 km/h 71 % 0 mm
18:33 23.1 °C 17.8 °C 1010.4 hPa SSE 0.8 km/h 5.6 km/h 72 % 0 mm
18:38 23.1 °C 17.5 °C 1010.4 hPa NW 3.5 km/h 7.4 km/h 71 % 0 mm
18:43 22.9 °C 17.2 °C 1010.4 hPa NNW 2.7 km/h 5.6 km/h 70 % 0 mm
18:48 22.8 °C 17.3 °C 1010.7 hPa NW 1.1 km/h 3.7 km/h 71 % 0 mm
18:53 22.8 °C 17.2 °C 1010.7 hPa NW 4.2 km/h 11.1 km/h 71 % 0 mm
18:58 22.7 °C 16.9 °C 1010.7 hPa NNE 3.5 km/h 5.6 km/h 70 % 0 mm
19:04 22.5 °C 17 °C 1010.7 hPa ENE 1.9 km/h 5.6 km/h 71 % 0 mm
19:09 22.4 °C 16.9 °C 1010.7 hPa NNE 4.5 km/h 8 km/h 71 % 0 mm
19:14 22.3 °C 16.8 °C 1010.7 hPa North 1.3 km/h 3.7 km/h 71 % 0 mm
19:19 22.2 °C 16.7 °C 1011.1 hPa North 2.7 km/h 5.6 km/h 71 % 0 mm
19:24 22.2 °C 16.7 °C 1011.1 hPa Calm   1.9 km/h 71 % 0 mm
19:29 22.1 °C 16.6 °C 1011.1 hPa NNW 0.5 km/h 3.7 km/h 71 % 0 mm
19:31 22.1 °C 16.8 °C 1011.1 hPa NW 1 km/h 7.4 km/h 72 % 0 mm
19:36 22.1 °C 16.6 °C 1011.1 hPa North 3.4 km/h 7.4 km/h 71 % 0 mm
19:41 22 °C 16.5 °C 1011.1 hPa WNW 3.1 km/h 16.7 km/h 71 % 0 mm
19:46 21.9 °C 16.2 °C 1011.4 hPa North 4 km/h 9.7 km/h 70 % 0 mm
19:56 21.7 °C 14.6 °C 1011.4 hPa NNE 1.8 km/h 7.4 km/h 64 % 0 mm
20:06 21.6 °C 13.7 °C 1011.4 hPa NNW 3.4 km/h 5.6 km/h 61 % 0 mm
20:11 21.6 °C 13.7 °C 1011.4 hPa NW 3.2 km/h 5.6 km/h 61 % 0 mm
20:16 21.5 °C 13.7 °C 1011.7 hPa North 4.7 km/h 9.3 km/h 61 % 0 mm
20:21 21.4 °C 13.6 °C 1011.7 hPa NNE 1.6 km/h 4.8 km/h 61 % 0 mm
20:26 21.4 °C 13.6 °C 1011.7 hPa NNW 4 km/h 11.1 km/h 61 % 0 mm
20:31 21.3 °C 13.5 °C 1011.7 hPa NNE 0.5 km/h 1.9 km/h 61 % 0 mm
20:36 21.3 °C 13.8 °C 1012.1 hPa Calm     62 % 0 mm
20:41 21.3 °C 13.9 °C 1012.1 hPa NNW 3.1 km/h 9.3 km/h 63 % 0 mm
20:46 21.2 °C 14.1 °C 1012.1 hPa NW 0.5 km/h 5.6 km/h 64 % 0 mm
20:51 21.2 °C 14.3 °C 1012.1 hPa North 0.6 km/h 3.7 km/h 65 % 0 mm
20:56 21.1 °C 14.2 °C 1011.7 hPa Calm   1.9 km/h 65 % 0 mm
21:01 21.1 °C 14.2 °C 1011.7 hPa North 0.5 km/h 3.7 km/h 65 % 0 mm
21:02 21 °C 14.2 °C 1011.7 hPa Calm   1.9 km/h 65 % 0 mm
21:07 20.9 °C 14.1 °C 1012.1 hPa Calm     65 % 0 mm
21:12 20.9 °C 14.1 °C 1012.1 hPa Calm   5.6 km/h 65 % 0 mm
21:17 20.8 °C 13.8 °C 1012.1 hPa North 0.2 km/h 1.6 km/h 64 % 0 mm
21:22 20.7 °C 13.9 °C 1012.1 hPa NW 1.8 km/h 7.4 km/h 65 % 0 mm
21:27 20.7 °C 14.1 °C 1012.1 hPa WNW 3.9 km/h 9.3 km/h 66 % 0 mm
21:32 20.6 °C 13 °C 1012.4 hPa North 2.3 km/h 9.3 km/h 62 % 0 mm
21:37 20.5 °C 13.2 °C 1012.4 hPa North 0.8 km/h 6.4 km/h 63 % 0 mm
21:42 20.4 °C 12.7 °C 1012.4 hPa North 5.8 km/h 18.5 km/h 61 % 0 mm
21:47 20.5 °C 12.7 °C 1012.4 hPa NE 6.1 km/h 13 km/h 61 % 0 mm
21:52 20.6 °C 12.8 °C 1012.4 hPa WNW 6.9 km/h 12.9 km/h 61 % 0 mm
21:57 20.6 °C 13.3 °C 1012.4 hPa NNE 2.1 km/h 9.3 km/h 63 % 0 mm
22:02 20.5 °C 13.2 °C 1012.4 hPa NNW 4.5 km/h 11.3 km/h 63 % 0 mm
22:08 20.5 °C 13.4 °C 1012.8 hPa NNW 1.3 km/h 13 km/h 64 % 0 mm
22:13 20.5 °C 13.4 °C 1012.8 hPa North 5.3 km/h 16.7 km/h 64 % 0 mm
22:18 20.4 °C 13.7 °C 1012.8 hPa North 3.9 km/h 9.3 km/h 65 % 0 mm
22:23 20.3 °C 13.6 °C 1012.8 hPa NNE 4.2 km/h 6.4 km/h 65 % 0 mm
22:28 20.3 °C 13 °C 1012.8 hPa ENE 8.2 km/h 12.9 km/h 63 % 0 mm
22:33 20.2 °C 13.2 °C 1012.8 hPa NE 7.7 km/h 13 km/h 64 % 0 mm
22:38 20.1 °C 12.8 °C 1012.8 hPa North 10.1 km/h 22.2 km/h 63 % 0 mm
22:43 20.1 °C 12.8 °C 1012.8 hPa North 9 km/h 14.8 km/h 63 % 0 mm
22:48 20 °C 13 °C 1012.8 hPa NE 6.1 km/h 11.3 km/h 64 % 0 mm
22:53 20 °C 13 °C 1012.8 hPa NNW 1.8 km/h 7.4 km/h 64 % 0 mm
22:58 19.9 °C 12.9 °C 1013.1 hPa NNW 6.6 km/h 13 km/h 64 % 0 mm
23:03 19.8 °C 12.8 °C 1013.1 hPa North 7.6 km/h 12.9 km/h 64 % 0 mm
23:08 19.8 °C 13 °C 1013.1 hPa NE 3.4 km/h 13 km/h 65 % 0 mm
23:15 19.7 °C 12.9 °C 1013.1 hPa NNE 6.6 km/h 13 km/h 65 % 0 mm
23:20 19.6 °C 13.1 °C 1013.1 hPa West 2.7 km/h 6.4 km/h 66 % 0 mm
23:25 19.4 °C 12.7 °C 1013.4 hPa NNE 5.8 km/h 13 km/h 65 % 0 mm
23:26 19.4 °C 12.7 °C 1013.4 hPa North 4 km/h 7.4 km/h 65 % 0 mm
23:28 19.4 °C 12.6 °C 1013.4 hPa North 6.9 km/h 16.7 km/h 65 % 0 mm
23:31 19.3 °C 12.3 °C 1013.4 hPa NNE 9.7 km/h 16.1 km/h 64 % 0 mm
23:32 19.3 °C 12.1 °C 1013.4 hPa NE 6.9 km/h 16.7 km/h 63 % 0 mm
23:37 19.2 °C 12.2 °C 1013.4 hPa NNW 6.1 km/h 13 km/h 64 % 0 mm
23:42 19.1 °C 11.9 °C 1013.4 hPa NNE 8.2 km/h 17.7 km/h 63 % 0 mm
23:47 19.1 °C 12.1 °C 1013.4 hPa NE 5 km/h 14.5 km/h 64 % 0 mm
23:52 19 °C 12.1 °C 1013.4 hPa North 8.4 km/h 19.3 km/h 64 % 0 mm
23:57 18.9 °C 12.2 °C 1013.4 hPa North 12.4 km/h 25.7 km/h 65 % 0 mm
Crab Meadow Weather
Compliments of Weather Underground - 3 mb

Script developed by  Jim McMurry - jmcmurry@mwt.net Adapted for the template by  Wim van der Kuil - Leuven-Template.eu

Astronomy: The light of the Sun takes 8 minutes to reach Earth.